RYR7JM EGBB-LFML

Flight info

Callsign RYR7JM
Flight time 1h 37m
Altitude 37000
Route COWLY L612 MID UL612 RESMI DCT KUKOR DCT UTUVA/N0437F290 DCT LERGA
Aircraft B38M/M-SDE1FGHILORVWXY/HB1

Departure

Time 2026-04-30 10:55
Airport Birmingham Airport (EGBB)

Arrival

Time 2026-04-30 12:32
Airport Marseille Provence Airport (LFML)
Time Latitude Longitude Altitude Speed Heading
2026-04-30 10:26 52.45096 -1.73551 326 ft 0 kts 141°
2026-04-30 10:45 52.45101 -1.73558 326 ft 4 kts 141°
2026-04-30 10:46 52.45122 -1.73584 325 ft 4 kts 147°
2026-04-30 10:46 52.45140 -1.73598 323 ft 2 kts 178°
2026-04-30 10:46 52.45151 -1.73594 324 ft 2 kts 219°
2026-04-30 10:46 52.45159 -1.73581 325 ft 2 kts 233°
2026-04-30 10:47 52.45164 -1.73568 322 ft 0 kts 236°
2026-04-30 10:48 52.45164 -1.73570 325 ft 1 kts 234°
2026-04-30 10:49 52.45148 -1.73604 324 ft 7 kts 234°
2026-04-30 10:49 52.45115 -1.73682 326 ft 9 kts 235°
2026-04-30 10:49 52.45117 -1.73788 324 ft 11 kts 310°
2026-04-30 10:49 52.45184 -1.73866 324 ft 13 kts 326°
2026-04-30 10:50 52.45264 -1.73953 324 ft 15 kts 326°
2026-04-30 10:50 52.45328 -1.74097 324 ft 17 kts 296°
2026-04-30 10:50 52.45383 -1.74277 325 ft 19 kts 296°
2026-04-30 10:50 52.45444 -1.74476 324 ft 20 kts 297°
2026-04-30 10:51 52.45543 -1.74651 325 ft 22 kts 326°
2026-04-30 10:51 52.45672 -1.74794 317 ft 16 kts 326°
2026-04-30 10:51 52.45778 -1.74909 311 ft 21 kts 326°
2026-04-30 10:51 52.45908 -1.75053 310 ft 24 kts 325°
2026-04-30 10:52 52.46055 -1.75217 308 ft 27 kts 326°
2026-04-30 10:52 52.46213 -1.75392 304 ft 29 kts 325°
2026-04-30 10:52 52.46382 -1.75586 304 ft 31 kts 326°
2026-04-30 10:52 52.46514 -1.75732 307 ft 20 kts 326°
2026-04-30 10:53 52.46622 -1.75862 310 ft 16 kts 300°
2026-04-30 10:53 52.46587 -1.76035 309 ft 18 kts 236°
2026-04-30 10:53 52.46535 -1.76082 309 ft 1 kts 149°
2026-04-30 10:53 52.46532 -1.76079 309 ft 0 kts 147°
2026-04-30 10:54 52.46504 -1.76049 311 ft 13 kts 146°
2026-04-30 10:54 52.46322 -1.75841 312 ft 65 kts 144°
2026-04-30 10:54 52.45728 -1.75179 323 ft 137 kts 146°
2026-04-30 10:54 52.44791 -1.74212 729 ft 169 kts 146°
2026-04-30 10:55 52.43702 -1.73144 1449 ft 189 kts 140°
2026-04-30 10:55 52.42671 -1.71997 2791 ft 176 kts 137°
2026-04-30 10:55 52.41656 -1.70833 3706 ft 185 kts 143°
2026-04-30 10:55 52.40366 -1.70069 4307 ft 206 kts 155°
2026-04-30 10:56 52.38968 -1.69410 5218 ft 208 kts 156°
2026-04-30 10:56 52.37606 -1.68592 5974 ft 210 kts 147°
2026-04-30 10:56 52.36307 -1.67498 5987 ft 209 kts 147°
2026-04-30 10:56 52.35023 -1.66348 5971 ft 214 kts 142°
2026-04-30 10:57 52.33741 -1.64983 5959 ft 223 kts 142°
2026-04-30 10:57 52.32438 -1.63617 5979 ft 227 kts 142°
2026-04-30 10:57 52.31086 -1.62213 5967 ft 228 kts 142°
2026-04-30 10:57 52.29763 -1.60848 5967 ft 228 kts 142°
2026-04-30 10:58 52.28412 -1.59462 6015 ft 228 kts 142°
2026-04-30 10:58 52.27066 -1.58086 6003 ft 229 kts 142°
2026-04-30 10:58 52.25692 -1.56703 6002 ft 239 kts 146°
2026-04-30 10:58 52.24172 -1.55471 6034 ft 248 kts 148°
2026-04-30 10:59 52.22604 -1.54223 6036 ft 252 kts 148°
2026-04-30 10:59 52.21031 -1.52960 6048 ft 252 kts 148°
2026-04-30 10:59 52.19453 -1.51696 6049 ft 253 kts 149°
2026-04-30 10:59 52.17859 -1.50441 6189 ft 256 kts 149°
2026-04-30 11:00 52.16288 -1.49203 7279 ft 253 kts 149°
2026-04-30 11:00 52.14682 -1.47932 8159 ft 260 kts 149°
2026-04-30 11:00 52.13047 -1.46640 9131 ft 262 kts 150°
2026-04-30 11:00 52.11390 -1.45332 10038 ft 266 kts 150°
2026-04-30 11:01 52.09715 -1.44009 10903 ft 269 kts 150°
2026-04-30 11:01 52.08017 -1.42669 11729 ft 273 kts 150°
2026-04-30 11:01 52.06291 -1.41309 12571 ft 277 kts 150°
2026-04-30 11:01 52.04544 -1.39933 13437 ft 279 kts 149°
2026-04-30 11:02 52.02801 -1.38561 14243 ft 283 kts 149°
2026-04-30 11:02 52.01016 -1.37158 14920 ft 286 kts 149°
2026-04-30 11:02 51.99214 -1.35743 15679 ft 289 kts 149°
2026-04-30 11:02 51.97389 -1.34312 16442 ft 292 kts 149°
2026-04-30 11:03 51.95548 -1.32868 17177 ft 296 kts 149°
2026-04-30 11:03 51.93683 -1.31408 17902 ft 299 kts 149°
2026-04-30 11:03 51.91799 -1.29934 18605 ft 302 kts 149°
2026-04-30 11:04 51.87986 -1.26954 19881 ft 306 kts 149°
2026-04-30 11:04 51.86063 -1.25455 20542 ft 307 kts 149°
2026-04-30 11:04 51.84132 -1.23950 21177 ft 308 kts 149°
2026-04-30 11:04 51.82202 -1.22446 21771 ft 310 kts 149°
2026-04-30 11:05 51.80244 -1.20923 22372 ft 312 kts 149°
2026-04-30 11:05 51.78304 -1.19416 22958 ft 314 kts 149°
2026-04-30 11:05 51.76325 -1.17879 23526 ft 316 kts 149°
2026-04-30 11:05 51.74334 -1.16334 24035 ft 318 kts 149°
2026-04-30 11:06 51.72325 -1.14777 24484 ft 321 kts 149°
2026-04-30 11:06 51.70301 -1.13210 24947 ft 322 kts 149°
2026-04-30 11:06 51.68275 -1.11643 25392 ft 324 kts 149°
2026-04-30 11:06 51.66230 -1.10063 25821 ft 326 kts 149°
2026-04-30 11:07 51.64180 -1.08480 26255 ft 328 kts 149°
2026-04-30 11:07 51.62119 -1.06885 26678 ft 329 kts 148°
2026-04-30 11:07 51.60210 -1.04904 26852 ft 334 kts 140°
2026-04-30 11:07 51.58283 -1.02688 26878 ft 347 kts 141°
2026-04-30 11:08 51.56276 -1.00399 26920 ft 360 kts 141°
2026-04-30 11:08 51.54172 -0.97999 26947 ft 373 kts 141°
2026-04-30 11:08 51.52048 -0.95579 26981 ft 385 kts 141°
2026-04-30 11:08 51.49826 -0.93049 27005 ft 396 kts 141°
2026-04-30 11:09 51.47544 -0.90454 27001 ft 408 kts 141°
2026-04-30 11:09 51.45149 -0.87922 27226 ft 416 kts 150°
2026-04-30 11:09 51.42466 -0.86146 27783 ft 417 kts 153°
2026-04-30 11:09 51.39778 -0.84380 28060 ft 421 kts 154°
2026-04-30 11:10 51.37047 -0.82611 28404 ft 424 kts 154°
2026-04-30 11:10 51.34305 -0.80852 28788 ft 425 kts 154°
2026-04-30 11:10 51.31543 -0.79087 29098 ft 428 kts 154°
2026-04-30 11:10 51.28766 -0.77316 29447 ft 430 kts 155°
2026-04-30 11:11 51.25978 -0.75540 29909 ft 430 kts 155°
2026-04-30 11:11 51.23206 -0.73778 30375 ft 429 kts 155°
2026-04-30 11:11 51.20464 -0.72035 30731 ft 429 kts 155°
2026-04-30 11:11 51.17683 -0.70271 31065 ft 429 kts 156°
2026-04-30 11:12 51.14909 -0.68512 31425 ft 429 kts 156°
2026-04-30 11:12 51.12130 -0.66754 31780 ft 430 kts 156°
2026-04-30 11:12 51.09344 -0.64993 32136 ft 430 kts 156°
2026-04-30 11:12 51.06569 -0.63235 32502 ft 429 kts 155°
2026-04-30 11:13 51.03974 -0.60938 32867 ft 426 kts 144°
2026-04-30 11:13 51.01552 -0.58338 33218 ft 425 kts 145°
2026-04-30 11:13 50.99078 -0.55729 33553 ft 426 kts 145°
2026-04-30 11:13 50.96613 -0.53113 33921 ft 426 kts 145°
2026-04-30 11:14 50.94156 -0.50499 34283 ft 425 kts 145°
2026-04-30 11:14 50.91701 -0.47889 34561 ft 425 kts 145°
2026-04-30 11:14 50.89240 -0.45275 34815 ft 426 kts 145°
2026-04-30 11:14 50.86773 -0.42657 35094 ft 426 kts 145°
2026-04-30 11:15 50.84310 -0.40048 35355 ft 426 kts 145°
2026-04-30 11:15 50.81844 -0.37438 35615 ft 426 kts 145°
2026-04-30 11:15 50.79380 -0.34834 35884 ft 426 kts 146°
2026-04-30 11:15 50.76938 -0.32257 36126 ft 427 kts 146°
2026-04-30 11:16 50.74471 -0.29655 36361 ft 427 kts 146°
2026-04-30 11:16 50.71995 -0.27048 36613 ft 427 kts 146°
2026-04-30 11:16 50.69523 -0.24449 36836 ft 427 kts 146°
2026-04-30 11:16 50.67047 -0.21849 37050 ft 427 kts 146°
2026-04-30 11:17 50.64570 -0.19252 37195 ft 428 kts 146°
2026-04-30 11:17 50.59657 -0.14109 37206 ft 426 kts 146°
2026-04-30 11:18 50.54708 -0.08942 37201 ft 426 kts 147°
2026-04-30 11:18 50.47278 -0.01208 37196 ft 427 kts 147°
2026-04-30 11:19 50.42519 0.04372 37200 ft 428 kts 143°
2026-04-30 11:19 50.37812 0.10138 37193 ft 429 kts 143°
2026-04-30 11:20 50.33114 0.15828 37195 ft 430 kts 143°
2026-04-30 11:20 50.28357 0.21571 37190 ft 431 kts 144°
2026-04-30 11:21 50.23610 0.27286 37189 ft 431 kts 144°
2026-04-30 11:21 50.18840 0.33013 37187 ft 432 kts 144°
2026-04-30 11:22 50.14091 0.38703 37184 ft 433 kts 144°
2026-04-30 11:22 50.09301 0.44424 37180 ft 434 kts 144°
2026-04-30 11:23 50.04501 0.50142 37179 ft 434 kts 144°
2026-04-30 11:24 49.97276 0.58724 37184 ft 436 kts 144°
2026-04-30 11:24 49.92479 0.64404 37181 ft 437 kts 144°
2026-04-30 11:25 49.86027 0.72018 37177 ft 438 kts 144°
2026-04-30 11:26 49.76292 0.83460 37169 ft 439 kts 144°
2026-04-30 11:26 49.71427 0.89156 37162 ft 439 kts 144°
2026-04-30 11:27 49.66536 0.94866 37166 ft 440 kts 144°
2026-04-30 11:27 49.61640 1.00567 37165 ft 441 kts 144°
2026-04-30 11:28 49.54325 1.09061 37157 ft 441 kts 144°
2026-04-30 11:29 49.49412 1.14746 37159 ft 441 kts 144°
2026-04-30 11:29 49.42058 1.23228 37160 ft 442 kts 144°
2026-04-30 11:30 49.34646 1.31744 37157 ft 442 kts 144°
2026-04-30 11:31 49.29736 1.37369 37160 ft 443 kts 144°
2026-04-30 11:31 49.24797 1.43010 37155 ft 443 kts 144°
2026-04-30 11:32 49.19844 1.48655 37154 ft 443 kts 144°
2026-04-30 11:32 49.14896 1.54279 37158 ft 443 kts 144°
2026-04-30 11:33 49.07503 1.62656 37154 ft 443 kts 144°
2026-04-30 11:33 49.02593 1.68200 37158 ft 436 kts 142°
2026-04-30 11:34 48.97726 1.73684 37151 ft 435 kts 143°
2026-04-30 11:34 48.92856 1.79157 37152 ft 435 kts 143°
2026-04-30 11:35 48.87982 1.84620 37151 ft 435 kts 143°
2026-04-30 11:35 48.83102 1.90078 37151 ft 435 kts 143°
2026-04-30 11:36 48.78248 1.95492 37160 ft 435 kts 143°
2026-04-30 11:36 48.73358 2.00936 37155 ft 435 kts 143°
2026-04-30 11:37 48.68499 2.06332 37157 ft 436 kts 143°
2026-04-30 11:37 48.63606 2.11754 37152 ft 436 kts 143°
2026-04-30 11:38 48.58696 2.17178 37156 ft 436 kts 143°
2026-04-30 11:38 48.56047 2.19391 37131 ft 436 kts 159°
2026-04-30 11:38 48.53157 2.20835 37146 ft 438 kts 160°
2026-04-30 11:39 48.47352 2.23742 37150 ft 440 kts 161°
2026-04-30 11:39 48.41521 2.26559 37147 ft 440 kts 161°
2026-04-30 11:40 48.35670 2.29356 37143 ft 440 kts 161°
2026-04-30 11:40 48.29866 2.32126 37144 ft 441 kts 161°
2026-04-30 11:41 48.24009 2.34912 37140 ft 441 kts 161°
2026-04-30 11:41 48.18154 2.37691 37137 ft 442 kts 161°
2026-04-30 11:42 48.12286 2.40468 37137 ft 442 kts 161°
2026-04-30 11:42 48.06410 2.43245 37132 ft 443 kts 161°
2026-04-30 11:43 48.00547 2.46007 37135 ft 443 kts 161°
2026-04-30 11:43 47.94659 2.48774 37133 ft 444 kts 161°
2026-04-30 11:44 47.88742 2.51551 37128 ft 445 kts 161°
2026-04-30 11:44 47.82872 2.54296 37131 ft 445 kts 161°
2026-04-30 11:45 47.76932 2.57068 37123 ft 446 kts 161°
2026-04-30 11:45 47.71003 2.59828 37125 ft 447 kts 161°
2026-04-30 11:46 47.65061 2.62589 37125 ft 448 kts 161°
2026-04-30 11:46 47.59145 2.65331 37118 ft 448 kts 161°
2026-04-30 11:47 47.53188 2.68084 37112 ft 449 kts 162°
2026-04-30 11:47 47.47212 2.70840 37114 ft 450 kts 162°
2026-04-30 11:48 47.41231 2.73592 37110 ft 450 kts 162°
2026-04-30 11:48 47.35250 2.76337 37104 ft 450 kts 162°
2026-04-30 11:49 47.29267 2.79077 37103 ft 451 kts 162°
2026-04-30 11:49 47.23269 2.81818 37104 ft 451 kts 162°
2026-04-30 11:50 47.17267 2.84553 37102 ft 451 kts 162°
2026-04-30 11:50 47.11263 2.87282 37102 ft 452 kts 162°
2026-04-30 11:51 47.05281 2.89996 37101 ft 452 kts 162°
2026-04-30 11:51 46.99256 2.92723 37103 ft 452 kts 163°
2026-04-30 11:52 46.93231 2.95444 37101 ft 453 kts 163°
2026-04-30 11:52 46.87211 2.98153 37102 ft 453 kts 163°
2026-04-30 11:53 46.81188 3.00860 37102 ft 453 kts 163°
2026-04-30 11:53 46.75196 3.03546 37099 ft 453 kts 163°
2026-04-30 11:54 46.69147 3.06252 37096 ft 453 kts 163°
2026-04-30 11:54 46.63110 3.08947 37095 ft 453 kts 163°
2026-04-30 11:55 46.57100 3.11624 37095 ft 453 kts 163°
2026-04-30 11:55 46.51158 3.14666 37099 ft 453 kts 160°
2026-04-30 11:56 46.45249 3.17866 37098 ft 453 kts 160°
2026-04-30 11:56 46.39328 3.21041 37098 ft 454 kts 160°
2026-04-30 11:57 46.33397 3.24209 37098 ft 454 kts 160°
2026-04-30 11:57 46.27504 3.27350 37103 ft 454 kts 160°
2026-04-30 11:58 46.21571 3.30506 37104 ft 454 kts 160°
2026-04-30 11:58 46.15628 3.33660 37100 ft 454 kts 160°
2026-04-30 11:59 46.09691 3.36804 37098 ft 454 kts 161°
2026-04-30 11:59 46.03742 3.39946 37101 ft 454 kts 161°
2026-04-30 12:00 45.97834 3.43059 37099 ft 455 kts 161°
2026-04-30 12:00 45.91886 3.46187 37097 ft 455 kts 161°
2026-04-30 12:01 45.85908 3.49222 37099 ft 454 kts 165°
2026-04-30 12:01 45.79848 3.51784 37098 ft 454 kts 165°
2026-04-30 12:02 45.73812 3.54393 37108 ft 454 kts 165°
2026-04-30 12:02 45.68088 3.58166 37116 ft 456 kts 151°
2026-04-30 12:03 45.59782 3.64894 37115 ft 457 kts 152°
2026-04-30 12:04 45.54259 3.69296 37118 ft 457 kts 152°
2026-04-30 12:04 45.48694 3.73722 37117 ft 457 kts 152°
2026-04-30 12:05 45.43135 3.78131 37118 ft 457 kts 152°
2026-04-30 12:05 45.37568 3.82536 37125 ft 457 kts 152°
2026-04-30 12:06 45.31991 3.86940 37135 ft 457 kts 152°
2026-04-30 12:06 45.26458 3.91301 37141 ft 458 kts 153°
2026-04-30 12:07 45.20887 3.95680 37145 ft 458 kts 153°
2026-04-30 12:07 45.15297 4.00064 37146 ft 458 kts 153°
2026-04-30 12:08 45.09748 4.04406 37032 ft 458 kts 153°
2026-04-30 12:08 45.06963 4.06581 36402 ft 456 kts 153°
2026-04-30 12:08 45.04170 4.08761 35599 ft 459 kts 153°
2026-04-30 12:08 45.01387 4.10930 35061 ft 455 kts 152°
2026-04-30 12:09 44.98617 4.13086 34394 ft 454 kts 153°
2026-04-30 12:09 44.95849 4.15239 33592 ft 449 kts 152°
2026-04-30 12:09 44.94056 4.16633 33057 ft 443 kts 153°
2026-04-30 12:09 44.91380 4.18710 32261 ft 434 kts 153°
2026-04-30 12:10 44.88762 4.20741 31572 ft 430 kts 153°
2026-04-30 12:10 44.86104 4.22799 30790 ft 443 kts 153°
2026-04-30 12:10 44.83377 4.24908 29975 ft 449 kts 153°
2026-04-30 12:10 44.80623 4.27037 29096 ft 452 kts 153°
2026-04-30 12:11 44.77849 4.29178 28242 ft 455 kts 152°
2026-04-30 12:11 44.75090 4.31307 27479 ft 459 kts 153°
2026-04-30 12:11 44.72271 4.33479 26767 ft 462 kts 153°
2026-04-30 12:11 44.69446 4.35653 26049 ft 464 kts 152°
2026-04-30 12:12 44.66611 4.37832 25336 ft 463 kts 152°
2026-04-30 12:12 44.63786 4.40002 24633 ft 460 kts 152°
2026-04-30 12:12 44.60992 4.42145 23936 ft 457 kts 152°
2026-04-30 12:12 44.58205 4.44280 23154 ft 453 kts 152°
2026-04-30 12:13 44.55450 4.46389 22413 ft 448 kts 152°
2026-04-30 12:13 44.52723 4.48474 21735 ft 444 kts 152°
2026-04-30 12:13 44.50026 4.50534 21057 ft 440 kts 152°
2026-04-30 12:13 44.47385 4.52549 20390 ft 435 kts 152°
2026-04-30 12:14 44.44741 4.54566 19719 ft 431 kts 152°
2026-04-30 12:14 44.42120 4.56561 19061 ft 427 kts 152°
2026-04-30 12:14 44.39520 4.58538 18403 ft 423 kts 152°
2026-04-30 12:14 44.36945 4.60496 17666 ft 419 kts 153°
2026-04-30 12:15 44.34397 4.62429 16997 ft 415 kts 152°
2026-04-30 12:15 44.31835 4.64224 16272 ft 409 kts 161°
2026-04-30 12:15 44.29080 4.65035 15673 ft 404 kts 173°
2026-04-30 12:15 44.26290 4.65526 14950 ft 404 kts 174°
2026-04-30 12:16 44.23485 4.65982 14190 ft 405 kts 174°
2026-04-30 12:16 44.20713 4.66411 13751 ft 396 kts 174°
2026-04-30 12:16 44.18016 4.66794 13000 ft 393 kts 178°
2026-04-30 12:16 44.15354 4.66486 12946 ft 372 kts 186°
2026-04-30 12:17 44.10392 4.67390 12016 ft 367 kts 157°
2026-04-30 12:17 44.08061 4.68839 11516 ft 363 kts 157°
2026-04-30 12:17 44.05809 4.70199 11301 ft 340 kts 157°
2026-04-30 12:18 44.03711 4.71455 11137 ft 316 kts 158°
2026-04-30 12:18 44.01774 4.72606 10950 ft 296 kts 158°
2026-04-30 12:18 43.99939 4.73692 10786 ft 277 kts 158°
2026-04-30 12:18 43.98253 4.74690 10676 ft 251 kts 158°
2026-04-30 12:19 43.96712 4.75598 10501 ft 230 kts 158°
2026-04-30 12:19 43.95257 4.76453 10362 ft 227 kts 158°
2026-04-30 12:19 43.93801 4.77305 10184 ft 226 kts 158°
2026-04-30 12:19 43.92358 4.78149 10038 ft 225 kts 158°
2026-04-30 12:20 43.90912 4.78993 9877 ft 225 kts 158°
2026-04-30 12:20 43.89488 4.79824 9599 ft 224 kts 158°
2026-04-30 12:20 43.88049 4.80664 9301 ft 223 kts 158°
2026-04-30 12:20 43.86623 4.81494 9017 ft 222 kts 158°
2026-04-30 12:21 43.85206 4.82320 8730 ft 220 kts 157°
2026-04-30 12:21 43.83798 4.83139 8457 ft 218 kts 157°
2026-04-30 12:21 43.82409 4.83948 8191 ft 216 kts 157°
2026-04-30 12:21 43.81023 4.84752 7910 ft 215 kts 157°
2026-04-30 12:22 43.79653 4.85551 7664 ft 214 kts 157°
2026-04-30 12:22 43.78278 4.86348 7386 ft 213 kts 157°
2026-04-30 12:22 43.76931 4.87130 7115 ft 212 kts 156°
2026-04-30 12:22 43.75562 4.87923 6875 ft 213 kts 156°
2026-04-30 12:23 43.74197 4.88715 6616 ft 212 kts 156°
2026-04-30 12:23 43.72831 4.89507 6358 ft 213 kts 156°
2026-04-30 12:23 43.71464 4.90296 6052 ft 214 kts 156°
2026-04-30 12:23 43.70088 4.91096 5738 ft 213 kts 156°
2026-04-30 12:24 43.68728 4.91884 5509 ft 211 kts 156°
2026-04-30 12:24 43.67397 4.92653 5271 ft 201 kts 155°
2026-04-30 12:24 43.66190 4.93350 5194 ft 181 kts 155°
2026-04-30 12:24 43.65026 4.94023 5089 ft 181 kts 155°
2026-04-30 12:25 43.63863 4.94695 4984 ft 181 kts 155°
2026-04-30 12:25 43.62747 4.95481 4866 ft 179 kts 146°
2026-04-30 12:25 43.61724 4.96467 4680 ft 178 kts 141°
2026-04-30 12:25 43.60756 4.97541 4469 ft 178 kts 139°
2026-04-30 12:26 43.59830 4.98669 4254 ft 177 kts 136°
2026-04-30 12:26 43.58931 4.99829 4027 ft 177 kts 135°
2026-04-30 12:26 43.58050 5.01005 3803 ft 176 kts 135°
2026-04-30 12:26 43.57179 5.02193 3558 ft 175 kts 134°
2026-04-30 12:27 43.56315 5.03381 3340 ft 175 kts 134°
2026-04-30 12:27 43.55472 5.04546 3098 ft 168 kts 134°
2026-04-30 12:27 43.54692 5.05628 2928 ft 152 kts 135°
2026-04-30 12:27 43.53950 5.06654 2725 ft 153 kts 134°
2026-04-30 12:28 43.53191 5.07709 2530 ft 149 kts 134°
2026-04-30 12:28 43.52496 5.08673 2367 ft 140 kts 135°
2026-04-30 12:28 43.51814 5.09624 2158 ft 139 kts 135°
2026-04-30 12:28 43.51134 5.10572 1971 ft 139 kts 135°
2026-04-30 12:29 43.50451 5.11518 1782 ft 138 kts 136°
2026-04-30 12:29 43.49776 5.12458 1598 ft 137 kts 136°
2026-04-30 12:29 43.49104 5.13400 1397 ft 137 kts 136°
2026-04-30 12:29 43.48436 5.14329 1230 ft 136 kts 137°
2026-04-30 12:30 43.47772 5.15248 1050 ft 139 kts 139°
2026-04-30 12:30 43.47072 5.16219 857 ft 145 kts 136°
2026-04-30 12:30 43.46352 5.17212 682 ft 147 kts 138°
2026-04-30 12:30 43.45626 5.18236 426 ft 151 kts 139°
2026-04-30 12:31 43.44871 5.19271 278 ft 157 kts 140°
2026-04-30 12:31 43.44099 5.20345 94 ft 158 kts 136°
2026-04-30 12:31 43.43362 5.21368 36 ft 137 kts 139°
2026-04-30 12:31 43.42842 5.22072 37 ft 72 kts 134°
2026-04-30 12:32 43.42626 5.22390 34 ft 32 kts 118°
2026-04-30 12:32 43.42638 5.22582 39 ft 17 kts 76°
2026-04-30 12:32 43.42673 5.22748 38 ft 19 kts 62°
2026-04-30 12:32 43.42771 5.22892 39 ft 21 kts 45°
2026-04-30 12:33 43.42902 5.22927 38 ft 22 kts 326°
2026-04-30 12:33 43.43017 5.22774 39 ft 24 kts 314°
2026-04-30 12:33 43.43138 5.22600 39 ft 27 kts 313°
2026-04-30 12:33 43.43290 5.22382 40 ft 36 kts 314°
2026-04-30 12:34 43.43518 5.22205 40 ft 39 kts 330°
2026-04-30 12:34 43.43692 5.22064 40 ft 27 kts 330°
2026-04-30 12:34 43.43818 5.22076 40 ft 13 kts 45°
2026-04-30 12:34 43.43848 5.22085 40 ft 3 kts 331°
2026-04-30 12:35 43.43869 5.22055 40 ft 6 kts 314°
2026-04-30 12:35 43.43871 5.22052 40 ft 0 kts 314°